Location: Reutlingen
(48.4911°N, 9.2587°E)
Time: 19:51:30
(UTC+02:00)

ISS - Visible Passes

Search period start: 20 May 2018 00:00
Search period end: 30 May 2018 00:00
Orbit: 402 x 407 km, 51.6° (Epoch: 21 May)

Date Brightness Start Highest point End Pass type
(mag) Time Alt. Az. Time Alt. Az. Time Alt. Az.
20 May -1.6 00:06:24 16° ENE 00:06:24 16° ENE 00:07:12 10° ENE visible
20 May -2.9 01:38:56 24° WNW 01:40:34 48° N 01:43:45 10° ENE visible
20 May -3.3 03:14:06 10° WNW 03:17:21 60° NNE 03:20:35 10° E visible
20 May -3.3 04:50:41 10° WNW 04:53:46 37° SSW 04:56:48 10° SE visible
20 May -3.6 23:08:42 10° SW 23:11:51 45° SSE 23:14:59 10° ENE visible
21 May -3.2 00:45:05 10° W 00:48:19 56° NNW 00:51:33 10° ENE visible
21 May -2.9 02:21:54 10° WNW 02:25:06 50° N 02:28:18 10° E visible
21 May -3.9 03:58:26 10° WNW 04:01:40 60° SSW 04:04:53 10° SE visible
21 May -2.9 22:16:56 10° SSW 22:19:47 28° SE 22:22:38 10° E visible
21 May -3.6 23:52:49 10° WSW 23:56:05 72° NNW 23:59:21 10° ENE visible
22 May -2.8 01:29:39 10° WNW 01:32:49 46° N 01:36:00 10° ENE visible
22 May -3.9 03:06:14 10° WNW 03:09:31 90° S 03:12:47 10° ESE visible
22 May -2.4 04:43:13 10° W 04:45:39 20° SW 04:48:06 10° S visible
22 May -4.0 23:00:36 10° WSW 23:03:53 82° SSE 23:07:09 10° ENE visible
23 May -2.8 00:37:22 10° W 00:40:32 46° N 00:43:43 10° ENE visible
23 May -3.5 02:14:02 10° WNW 02:17:18 66° NNE 02:20:33 10° E visible
23 May -3.1 03:50:42 10° W 03:53:39 31° SW 03:56:35 10° SSE visible
23 May -3.7 22:08:31 10° SW 22:11:43 53° SSE 22:14:55 10° ENE visible
23 May -3.0 23:45:01 10° W 23:48:14 52° N 23:51:28 10° ENE visible
24 May -3.1 01:21:49 10° WNW 01:25:02 53° N 01:27:54 12° E visible
24 May -2.7 02:58:21 10° WNW 03:00:17 30° W 03:00:17 30° W visible
24 May -3.4 22:52:42 10° W 22:55:58 65° NNW 22:59:13 10° ENE visible
25 May -2.8 00:29:33 10° WNW 00:32:44 47° N 00:35:40 12° E visible
25 May -2.9 02:06:06 10° WNW 02:08:15 38° WNW 02:08:15 38° WNW visible
25 May -3.8 22:00:25 10° WSW 22:03:42 88° NNW 22:06:59 10° ENE visible
25 May -2.7 23:37:13 10° WNW 23:40:24 46° N 23:43:34 10° ENE visible
26 May -3.7 01:13:52 10° WNW 01:17:09 74° NNE 01:17:10 73° NNE visible
26 May -2.9 22:44:51 10° W 22:48:04 49° N 22:51:16 10° ENE visible
27 May -3.2 00:21:36 10° WNW 00:24:51 57° NNE 00:26:19 28° E visible
27 May -1.5 01:58:10 10° WNW 01:58:55 15° W 01:58:55 15° W visible
27 May -3.2 21:52:29 10° W 21:55:44 59° NNW 21:58:58 10° ENE visible
27 May -2.9 23:29:19 10° WNW 23:32:30 48° N 23:35:33 11° E visible
28 May -3.0 01:05:51 10° WNW 01:08:10 41° W 01:08:10 41° W visible
28 May -2.7 22:36:58 10° WNW 22:40:09 46° N 22:43:19 10° ENE visible
29 May -3.9 00:13:34 10° WNW 00:16:51 82° NNE 00:17:28 55° E visible
29 May -3.4 23:21:17 10° WNW 23:24:32 61° NNE 23:26:49 18° E visible
